Location: Unspecified
(0.0000°N, 0.0000°E)
Time: 08:35:19
(UTC+00:00)

OFEQ 7 - Visible Passes

Search period start: 10 June 2023 00:00
Search period end: 20 June 2023 00:00
Orbit: 475 x 482 km, 141.7° (Epoch: 03 October)

Date Brightness Start Highest point End Pass type
(mag) Time Alt. Az. Time Alt. Az. Time Alt. Az.
10 Jun 5.2 05:03:15 10° ESE 05:06:27 69° NE 05:09:38 10° NW visible
11 Jun 7.7 04:32:07 10° E 04:34:19 17° NE 04:36:31 10° N visible
11 Jun 8.5 19:15:48 10° NNW 19:16:12 10° NW 19:16:36 10° NW visible
12 Jun 6.3 05:28:08 10° ESE 05:31:12 42° NE 05:34:15 10° NW visible
12 Jun 6.8 18:41:01 10° NNE 18:44:05 34° NW 18:47:10 10° WSW visible
13 Jun 8.1 04:57:49 10° ENE 04:59:04 12° NE 05:00:18 10° NNE visible
13 Jun 8.0 19:38:58 10° N 19:40:55 15° NW 19:42:54 10° WNW visible
14 Jun 5.7 19:05:31 10° NE 19:08:46 53° NW 19:12:03 10° WSW visible
15 Jun 5.6 18:33:30 10° ENE 18:36:35 35° SE 18:39:41 10° SSW visible
15 Jun 7.3 20:05:27 22° NNW 20:05:37 22° NW 20:08:13 10° W visible
16 Jun 4.8 19:33:12 77° NE 19:33:24 86° NW 19:36:46 10° SW visible
17 Jun 6.1 19:00:46 23° SE 19:01:13 24° SE 19:03:57 10° SSW visible
